Regional Weather Roundup
Issued by NWS

Home | Current Version | Previous Version | Graphics & Text | Print | Product List | Glossary On
Versions: 1 2 3 4 5 6 7 8 9 10 11 12 13 14 15 16 17 18 19 20 21 22 23 24 25 26 27 28 29 30 31 32 33 34 35 36 37 38 39 40 41 42 43 44 45 46 47 48 49 50
000
ASUS43 KMKX 031521
RWRWI

WISCONSIN REGIONAL WEATHER ROUNDUP
NATIONAL WEATHER SERVICE MILWAUKEE/SULLIVAN WI
1000 AM CDT THU SEP 03 2015

NOTE: "FAIR" INDICATES FEW OR NO CLOUDS BELOW 12,000 FEET WITH NO
SIGNIFICANT WEATHER AND/OR OBSTRUCTIONS TO VISIBILITY.

WIZ001-002-006>008-014>016-023>028-031600-
NORTHWEST WISCONSIN

CITY           SKY/WX    TMP DP  RH WIND       PRES   REMARKS
SUPERIOR ARPT  FOG       59  59 100 NE6       30.00S VSB 1/4
ASHLAND        CLOUDY    63  63 100 CALM      30.01S
HAYWARD        CLOUDY    66  63  90 E8        30.00R
SIREN          PTSUNNY   66  65  97 E8        29.97S
CUMBERLAND     CLOUDY    66  63  88 E9        29.98R
RICE LAKE      CLOUDY    66  64  93 E8        29.99S
CHETEK         CLOUDY   N/A N/A N/A E7        29.98S
LADYSMITH      MOSUNNY   73  66  78 NE6       30.01R
EAU CLAIRE     CLOUDY    68  66  93 NE10      29.95S
MENOMONIE      CLOUDY    69  68  98 E7        29.95F FOG
NEW RICHMOND   CLOUDY    71  69  93 E7        29.95S
OSCEOLA        PTSUNNY   73  72  99 E6        29.96S
$$

WIZ003>005-009-010-017-018-031600-
NORTH CENTRAL WISCONSIN

CITY           SKY/WX    TMP DP  RH WIND       PRES   REMARKS
MANITOWISH WTR SUNNY     67  64  89 NE5       30.01S
ARBOR VITAE    SUNNY     72  65  78 NE3       30.01R
WOODRUFF       SUNNY     72  65  78 NE3       30.01R
RHINELANDER    CLOUDY    67  63  87 NE6       30.01R
EAGLE RIVER    MOSUNNY   69  62  77 E3        30.01R
LAND O LAKES   MOSUNNY   69  63  82 E3        30.03R
PHILLIPS       CLOUDY    68  64  88 NE6       30.00S
TOMAHAWK       PTSUNNY   67  62  84 NE5       30.00S
MEDFORD        CLOUDY    66  65  95 NE8       29.99S
MERRILL        CLOUDY    67  65  93 E6        29.99S
$$

WIZ029-030-035-036-043>047-031600-
CENTRAL WISCONSIN

CITY           SKY/WX    TMP DP  RH WIND       PRES   REMARKS
WAUSAU         CLOUDY    68  64  87 VRB3      29.96F
MOSINEE        CLOUDY    66  66 100 NE6       29.99S
MARSHFIELD     CLOUDY    69  63  81 E6        29.98R
STEVENS POINT  CLOUDY    65  63  93 N5        29.98R
WAUPACA        CLOUDY    70  69  95 NW5       29.96S
WAUTOMA        CLOUDY    72  70  94 N7        29.96R
WISC RAPIDS    CLOUDY    69  64  84 NE6       29.98R
CAMP DOUGLAS   CLOUDY    73  73 100 NE6       29.94S
$$

WIZ011>013-019>022-031-037>040-048>050-031600-
NORTHEAST WISCONSIN

CITY           SKY/WX    TMP DP  RH WIND       PRES   REMARKS
ANTIGO         CLOUDY    66  64  95 N6        29.99R
SHAWANO        NOT AVBL
OCONTO         CLOUDY    68  68 100 NE5       29.92S
STURGEON BAY   CLOUDY    70  64  83 N10       29.94R
GREEN BAY      CLOUDY    70  67  90 N8        29.93R
MANITOWOC      CLOUDY    72  67  84 MISG      29.92S
APPLETON       CLOUDY    68  66  94 NW7       29.93S
CLINTONVILLE   CLOUDY    70  64  83 N7        29.95R
OSHKOSH        CLOUDY    70  65  84 N12       29.93S
$$

WIZ032>034-041-042-053>061-031600-
SOUTHWEST WISCONSIN

CITY           SKY/WX    TMP DP  RH WIND       PRES   REMARKS
LA CROSSE      SUNNY     79  70  74 CALM      29.92S HX  82
SPARTA         CLOUDY    76  68  75 CALM      29.94S
VIROQUA          N/A     77  74  88 CALM      29.95F
BOSCOBEL       SUNNY     80  70  71 SW3       29.93S HX  83
PRAIRIE DU CHI SUNNY     80  69  68 W3        29.92S HX  83
PLATTEVILLE    SUNNY     79  72  80 W6        29.95S HX  82
$$

WIZ056-057-062-063-064-067-068-031600-
SOUTH CENTRAL WISCONSIN

CITY           SKY/WX    TMP DP  RH WIND       PRES   REMARKS
REEDSBURG      SUNNY     78  71  78 CALM      29.93F HX  80
BARABOO/DELLS  SUNNY     79  68  69 NW5       29.94S HX  81
LONE ROCK      SUNNY     79  70  74 NW5       29.94S HX  82
MINERAL POINT  SUNNY     81  72  74 W6        29.95S HX  84
MADISON        MOSUNNY   79  70  74 VRB5      29.93F HX  82
MIDDLETON      SUNNY     81  69  68 NW8       29.94S HX  84
WATERTOWN      SUNNY     77  75  93 W3        29.93S
MONROE         SUNNY     79  70  73 W13       29.95S HX  81
JANESVILLE     MOSUNNY   81  70  69 W9        29.93S HX  84
$$

WIZ051-052-058>065-066-070>072-031600-
SOUTHEAST WISCONSIN

CITY           SKY/WX    TMP DP  RH WIND       PRES   REMARKS
MILWAUKEE      MOSUNNY   80  69  69 W8        29.92S HX  83
WAUKESHA       MOSUNNY   75  70  83 SW6       29.94F
MILWAUKEE/TIMM SUNNY     77  66  69 W9        29.93S
RACINE         MOSUNNY   80  69  69 W9        29.94S HX  83
BURLINGTON     SUNNY     78  68  70 W6        29.94S HX  81
KENOSHA        SUNNY     81  71  71 W10       29.94S HX  85
FOND DU LAC    CLOUDY    72  68  87 N8        29.94R
SHEBOYGAN      CLOUDY    73  70  90 NW5       29.92S FOG
WEST BEND      PTSUNNY   77  68  73 NW10      29.92S
JUNEAU         CLOUDY    75  70  82 NW5       29.94S
$$

LSZ147-162-031600-
LAKE SUPERIOR

STATION/POSITION TIME  TEMP    WIND        PRES    WAVE
                       AIR SEA DIR/SP/G            HT/PER
                 (UTC) (F)     (DEG/KT/KT) (MB)    (FT/S)
W MID LAKE BUOY  1450   57 57  290/  2/  2 1016.4S   0
DEVILS ISLAND    1500   58      30/  8/  9 1016.3S
PORT WING        1400   59      30/  9/ 11 1015.9R
SAXON HARBOR     1440   62        CALM     1015.6R
$$

LMZ867-665-643>646-031600-
LAKE MICHIGAN

STATION/POSITION TIME  TEMP    WIND        PRES    WAVE
                       AIR SEA DIR/SP/G            HT/PER
                 (UTC) (F)     (DEG/KT/KT) (MB)    (FT/S)
CHAMBERS ISLAND  1400   64      10/  9/ 10 1013.2S
S GREEN BAY BUOY 1300   66 66  340/  8/ 10 1014.2R
N MID LAKE BUOY  1450   67 65  130/ 10/ 12 1012.8R   3/ 5
NORTHPORT PIER   1400   66      70/  7/  9 1013.2S
SISTER BAY       1411   68      70/  6/  9   N/A
ALGOMA LAKESHORE 1414          330/  7/ 10   N/A
KEWAUNEE LAKESHO 1500          330/  5/  8 1012.0R
SHEBOYGAN LAKESH 1500   64     100/  3/  3 1013.1S
PORT WASHINGTON  1400   77     260/  7/ 11 1013.5R
ATWATER BUOY     1500   69     260/  8/  8 1014.3F
MILWAUKEE LAKESH 1510   78     260/  8/ 10   N/A
S MID LAKE BUOY  1450   73 71  230/ 10/ 12 1013.0R   1/ 3
KENOSHA   LAKESH 1500   80     280/  8/ 15 1013.2S
$$

TC  - TEMPERATURE IN CELSIUS
VSB - VISIBILITY IN STATUTE MILES
WCI - WIND CHILL INDEX
HX  - HEAT INDEX




USA.gov is the U.S. government's official web portal to all federal, state and local government web resources and services.